Weather History for Branson West Muni - Emerson F, MO

Change the Weather History Date:

Sunday, April 20, 2014

  Actual Average (KHRO) Record (KHRO)
Temperature  
Mean Temperature 67 °F 59 °F  
Max Temperature 77 °F 70 °F 92 °F (1987)
Min Temperature 57 °F 48 °F 28 °F (1956)
Degree Days  
Heating Degree Days 0 7  
Month to date heating degree days 185  
Since 1 July heating degree days 3865  
Cooling Degree Days 2 1  
Month to date cooling degree days 20  
Year to date cooling degree days 26  
Growing Degree Days 17 (Base 50)    
Moisture  
Dew Point 48 °F    
Average Humidity 51    
Maximum Humidity 72    
Minimum Humidity 36    
Precipitation  
Precipitation 0.00 in 0.16 in 3.07 in (1977)
Month to date precipitation 2.69  
Year to date precipitation 11.68  
Snow  
Snow 0.00 in 0.00 in - ()
Month to date snowfall 0.3  
Since 1 July snowfall 11.5  
Snow Depth -    
Sea Level Pressure  
Sea Level Pressure 30.14 in    
Wind  
Wind Speed 4 mph (South)    
Max Wind Speed 12 mph    
Max Gust Speed 20 mph    
Visibility 10 miles    
Events      
T = Trace of Precipitation, MM = Missing Value Source: NWS Daily Summary

Daily Weather History Graph

Daily Weather History Graph

Search for Another Location

Airport:

Trip Planner

Search our weather history database for the weather conditions in past years. The results will help you decide how hot, cold, wet, or windy it might be!

Date:

Astronomy

Apr. 20, 2014 Rise Set
Actual Time 6:33 AM CDT 7:52 PM CDT
Civil Twilight 6:06 AM CDT 8:19 PM CDT
Nautical Twilight 5:33 AM CDT 8:51 PM CDT
Astronomical Twilight 5:00 AM CDT 9:25 PM CDT
Moon 12:29 AM CDT (4/20) 10:57 AM CDT (4/20)
Length of Visible Light 14h 13m
Length of Day
13h 19m
Waning Gibbous, 68% of the Moon is Illuminated
Apr 20
Waning Gibbous
Apr 22
Last Quarter
Apr 29
New
May 6
First Quarter
May 14
Full

Hourly Weather History & Observations

Time (CDT) Temp. Dew Point Humidity Pressure Visibility Wind Dir Wind Speed Gust Speed Precip Events Conditions
12:15 AM 62.6 °F 46.4 °F 55% 30.16 in 10.0 mi SSE 4.6 mph - N/A   Partly Cloudy
12:35 AM 64.4 °F 46.4 °F 52% 30.16 in 10.0 mi SSE 5.8 mph - N/A   Clear
12:55 AM 62.6 °F 46.4 °F 55% 30.17 in 10.0 mi Calm Calm - N/A   Scattered Clouds
1:15 AM 62.6 °F 46.4 °F 55% 30.17 in 10.0 mi ENE 3.5 mph - N/A   Scattered Clouds
1:35 AM 60.8 °F 46.4 °F 59% 30.17 in 10.0 mi East 3.5 mph - N/A   Partly Cloudy
1:55 AM 59.0 °F 46.4 °F 63% 30.18 in 10.0 mi Calm Calm - N/A   Clear
2:15 AM 60.8 °F 46.4 °F 59% 30.18 in 10.0 mi SE 4.6 mph - N/A   Clear
2:35 AM 60.8 °F 46.4 °F 59% 30.18 in 10.0 mi SSE 3.5 mph - N/A   Clear
2:55 AM 60.8 °F 46.4 °F 59% 30.17 in 10.0 mi SE 3.5 mph - N/A   Clear
3:15 AM 59.0 °F 46.4 °F 63% 30.17 in 10.0 mi SE 4.6 mph - N/A   Partly Cloudy
3:35 AM 59.0 °F 46.4 °F 63% 30.17 in 10.0 mi Calm Calm - N/A   Clear
3:55 AM 60.8 °F 46.4 °F 59% 30.17 in 10.0 mi SE 4.6 mph - N/A   Partly Cloudy
4:15 AM 60.8 °F 46.4 °F 59% 30.17 in 10.0 mi SE 3.5 mph - N/A   Scattered Clouds
4:35 AM 59.0 °F 46.4 °F 63% 30.17 in 10.0 mi Calm Calm - N/A   Partly Cloudy
4:55 AM 59.0 °F 46.4 °F 63% 30.18 in 10.0 mi Calm Calm - N/A   Scattered Clouds
5:15 AM 59.0 °F 46.4 °F 63% 30.18 in 10.0 mi Calm Calm - N/A   Mostly Cloudy
5:35 AM 59.0 °F 48.2 °F 67% 30.18 in 10.0 mi Calm Calm - N/A   Overcast
5:55 AM 59.0 °F 46.4 °F 63% 30.18 in 10.0 mi Calm Calm - N/A   Overcast
6:15 AM 59.0 °F 48.2 °F 67% 30.18 in 10.0 mi Calm Calm - N/A   Overcast
6:35 AM 57.2 °F 48.2 °F 72% 30.19 in 10.0 mi Calm Calm - N/A   Scattered Clouds
6:55 AM 57.2 °F 48.2 °F 72% 30.19 in 10.0 mi Calm Calm - N/A   Clear
7:15 AM 57.2 °F 48.2 °F 72% 30.20 in 10.0 mi ESE 3.5 mph - N/A   Clear
7:35 AM 59.0 °F 48.2 °F 67% 30.20 in 10.0 mi ESE 3.5 mph - N/A   Clear
7:55 AM 60.8 °F 48.2 °F 63% 30.20 in 10.0 mi ESE 3.5 mph - N/A   Clear
8:15 AM 62.6 °F 48.2 °F 59% 30.20 in 10.0 mi Calm Calm - N/A   Clear
8:35 AM 64.4 °F 48.2 °F 56% 30.20 in 10.0 mi Calm Calm - N/A   Clear
8:55 AM 64.4 °F 48.2 °F 56% 30.20 in 10.0 mi South 5.8 mph - N/A   Clear
9:15 AM 66.2 °F 50.0 °F 56% 30.20 in 10.0 mi South 6.9 mph - N/A   Clear
9:35 AM 68.0 °F 50.0 °F 52% 30.20 in 10.0 mi SSE 3.5 mph - N/A   Clear
9:55 AM 68.0 °F 50.0 °F 52% 30.20 in 10.0 mi SSE 6.9 mph - N/A   Clear
10:15 AM 71.6 °F 50.0 °F 46% 30.20 in 10.0 mi SW 5.8 mph - N/A   Clear
10:35 AM 71.6 °F 50.0 °F 46% 30.20 in 10.0 mi SW 8.1 mph - N/A   Clear
10:55 AM 73.4 °F 50.0 °F 44% 30.19 in 10.0 mi WSW 11.5 mph 18.4 mph N/A   Clear
11:15 AM 73.4 °F 50.0 °F 44% 30.18 in 10.0 mi SE 5.8 mph 18.4 mph N/A   Partly Cloudy
11:35 AM 75.2 °F 50.0 °F 41% 30.18 in 10.0 mi SE 6.9 mph - N/A   Partly Cloudy
11:55 AM 75.2 °F 48.2 °F 38% 30.17 in 10.0 mi South 8.1 mph 17.3 mph N/A   Scattered Clouds
12:15 PM 73.4 °F 48.2 °F 41% 30.17 in 10.0 mi South 9.2 mph 19.6 mph N/A   Mostly Cloudy
12:35 PM 73.4 °F 48.2 °F 41% 30.17 in 10.0 mi South 8.1 mph - N/A   Mostly Cloudy
12:55 PM 73.4 °F 48.2 °F 41% 30.16 in 10.0 mi SE 5.8 mph - N/A   Mostly Cloudy
1:15 PM 73.4 °F 48.2 °F 41% 30.15 in 10.0 mi SE 8.1 mph - N/A   Mostly Cloudy
1:35 PM 75.2 °F 48.2 °F 38% 30.14 in 10.0 mi SSE 6.9 mph 16.1 mph N/A   Mostly Cloudy
1:55 PM 75.2 °F 48.2 °F 38% 30.14 in 10.0 mi SE 8.1 mph - N/A   Partly Cloudy
2:15 PM 75.2 °F 48.2 °F 38% 30.14 in 10.0 mi Calm Calm - N/A   Scattered Clouds
2:35 PM 73.4 °F 48.2 °F 41% 30.14 in 10.0 mi West 10.4 mph 17.3 mph N/A   Mostly Cloudy
2:55 PM 73.4 °F 48.2 °F 41% 30.13 in 10.0 mi WSW 8.1 mph - N/A   Scattered Clouds
3:15 PM 75.2 °F 48.2 °F 38% 30.12 in 10.0 mi SW 8.1 mph - N/A   Clear
3:35 PM 75.2 °F 48.2 °F 38% 30.12 in 10.0 mi South 6.9 mph 19.6 mph N/A   Clear
3:55 PM 77.0 °F 48.2 °F 36% 30.11 in 10.0 mi SSW 6.9 mph - N/A   Scattered Clouds
4:15 PM 77.0 °F 48.2 °F 36% 30.09 in 10.0 mi West 5.8 mph - N/A   Scattered Clouds
4:35 PM 75.2 °F 48.2 °F 38% 30.08 in 10.0 mi West 4.6 mph - N/A   Clear
4:55 PM 77.0 °F 48.2 °F 36% 30.09 in 10.0 mi WSW 11.5 mph - N/A   Clear
5:15 PM 75.2 °F 48.2 °F 38% 30.08 in 10.0 mi South 4.6 mph - N/A   Partly Cloudy
5:35 PM 75.2 °F 48.2 °F 38% 30.08 in 10.0 mi SSW 5.8 mph - N/A   Partly Cloudy
5:55 PM 75.2 °F 48.2 °F 38% 30.08 in 10.0 mi SW 5.8 mph - N/A   Clear
6:15 PM 73.4 °F 48.2 °F 41% 30.07 in 10.0 mi Calm Calm - N/A   Clear
6:35 PM 73.4 °F 48.2 °F 41% 30.07 in 10.0 mi Calm Calm - N/A   Clear
6:55 PM 73.4 °F 48.2 °F 41% 30.07 in 10.0 mi SW 4.6 mph - N/A   Clear
7:15 PM 73.4 °F 48.2 °F 41% 30.06 in 10.0 mi SW 4.6 mph - N/A   Clear
7:35 PM 71.6 °F 48.2 °F 43% 30.06 in 10.0 mi SSW 4.6 mph - N/A   Clear
8:15 PM 69.8 °F 48.2 °F 46% 30.07 in 10.0 mi South 4.6 mph - N/A   Clear
8:35 PM 68.0 °F 48.2 °F 49% 30.07 in 10.0 mi SW 5.8 mph - N/A   Mostly Cloudy
8:55 PM 68.0 °F 48.2 °F 49% 30.08 in 10.0 mi SSW 6.9 mph - N/A   Overcast
9:15 PM 68.0 °F 48.2 °F 49% 30.08 in 10.0 mi SSW 6.9 mph - N/A   Overcast
9:35 PM 68.0 °F 48.2 °F 49% 30.09 in 10.0 mi SSW 5.8 mph - N/A   Overcast
9:55 PM 68.0 °F 48.2 °F 49% 30.08 in 10.0 mi South 3.5 mph - N/A   Overcast
10:15 PM 66.2 °F 50.0 °F 56% 30.09 in 10.0 mi SSW 4.6 mph - N/A   Overcast
10:35 PM 66.2 °F 48.2 °F 52% 30.08 in 10.0 mi SSW 5.8 mph - N/A   Mostly Cloudy
10:55 PM 66.2 °F 48.2 °F 52% 30.07 in 10.0 mi South 3.5 mph - N/A   Clear
11:15 PM 66.2 °F 48.2 °F 52% 30.06 in 10.0 mi SSE 3.5 mph - N/A   Clear
11:35 PM 66.2 °F 48.2 °F 52% 30.06 in 10.0 mi SSE 3.5 mph - N/A   Clear
11:55 PM 66.2 °F 48.2 °F 52% 30.06 in 10.0 mi SSE 5.8 mph - N/A   Clear